Location: Columbia
(38.9520°N, 92.3340°W)
Time: 14:47:37
(UTC-06:00)

FENGYUN 3A - Visible Passes

Search period start: 28 February 2015 00:00
Search period end: 10 March 2015 01:00
Orbit: 820 x 834 km, 98.5° (Epoch: 28 February)

Date Brightness Start Highest point End Pass type
(mag) Time Alt. Az. Time Alt. Az. Time Alt. Az.
28 Feb 5.2 19:35:00 19° NE 19:35:00 19° NE 19:37:35 10° NNE visible
28 Feb 5.5 21:16:29 25° NW 21:16:29 25° NW 21:18:48 10° NNW visible
01 Mar 5.4 19:15:52 14° NE 19:15:52 14° NE 19:17:55 10° NNE visible
01 Mar 5.1 20:57:21 31° NNW 20:57:21 31° NNW 21:00:09 10° NNW visible
02 Mar 4.7 20:38:13 36° N 20:38:13 36° N 20:41:22 10° N visible
03 Mar 4.6 20:19:04 35° NNE 20:19:04 35° NNE 20:22:27 10° N visible
03 Mar 6.4 22:00:33 14° NW 22:00:33 14° NW 22:01:37 10° NW visible
04 Mar 4.7 19:59:55 30° NE 19:59:55 30° NE 20:03:24 10° N visible
04 Mar 5.9 21:41:24 20° NW 21:41:24 20° NW 21:43:30 10° NW visible
05 Mar 4.9 19:40:47 23° NE 19:40:47 23° NE 19:44:11 10° NNE visible
05 Mar 5.4 21:22:16 28° NW 21:22:16 28° NW 21:25:05 10° NNW visible
06 Mar 5.2 19:21:39 16° ENE 19:21:39 16° ENE 19:24:41 10° NNE visible
06 Mar 4.8 21:03:08 38° NNW 21:03:08 38° NNW 21:06:29 10° NNW visible
07 Mar 5.5 19:02:30 11° ENE 19:02:47 11° ENE 19:04:20 10° NE visible
07 Mar 4.4 20:43:59 46° N 20:43:59 46° N 20:47:45 10° NNW visible
08 Mar 4.2 21:24:51 46° NNE 21:24:51 46° NNE 21:28:53 10° N visible
08 Mar 6.3 23:06:20 14° WNW 23:06:20 14° WNW 23:07:38 10° NW visible
09 Mar 4.3 21:05:43 36° NE 21:05:43 36° NE 21:09:53 10° N visible
09 Mar 5.9 22:47:12 21° WNW 22:47:12 21° WNW 22:49:39 10° NW visible
